Location: Chervonnoye
(48.6000°N, 34.4000°E)
Time: 13:31:45
(UTC+00:00)

N. Korean satellite - Pass Details

Date: 27 September 2021
Orbit: 450 x 495 km, 97.3° (Epoch: 19 October)

Event Time Altitude Azimuth Distance (km) Brightness Sun altitude
Rises 02:33:30 0° 20° (NNE) 2,532 10.7 -11.1°
Reaches altitude 10° 02:35:41 10° 30° (NNE) 1,657 9.9 -10.8°
Maximum altitude 02:38:58 34° 97° (E) 813 8.5 -10.2°
Drops below altitude 10° 02:42:15 10° 164° (SSE) 1,667 9.4 -9.7°
Sets 02:44:27 0° 174° (S) 2,549 10.2 -9.3°
